EDT,Max TemperatureF,Mean TemperatureF,Min TemperatureF,Max Dew PointF,MeanDew PointF,Min DewpointF,Max Humidity, Mean Humidity, Min Humidity, Max Sea Level PressureIn, Mean Sea Level PressureIn, Min Sea Level PressureIn, Max VisibilityMiles, Mean VisibilityMiles, Min VisibilityMiles, Max Wind SpeedMPH, Mean Wind SpeedMPH, Max Gust SpeedMPH,PrecipitationIn, CloudCover, Events, WindDirDegrees
2013-9-1,91,87,82,76,74,72,79,71,63,30.01,29.97,29.93,10,10,10,13,5,20,0.00,0,Thunderstorm,155
2013-9-2,92,87,81,79,75,73,79,74,68,30.04,30.00,29.95,10,10,10,12,4,15,T,3,Thunderstorm,118
2013-9-3,90,85,79,77,74,71,79,72,64,30.02,29.98,29.93,10,9,2,15,4,20,0.10,2,Rain-Thunderstorm,79
2013-9-4,91,86,81,77,75,74,85,75,64,30.04,29.99,29.94,10,10,10,13,7,18,T,1,,94
2013-9-5,91,87,82,76,75,74,79,68,56,30.05,30.01,29.98,10,10,9,14,9,18,0.01,1,,89
2013-9-6,92,87,81,76,75,72,74,67,59,30.03,29.98,29.92,10,10,10,16,7,22,0.02,1,,88
2013-9-7,89,85,80,74,72,68,79,67,55,30.01,29.95,29.89,10,10,10,17,7,22,0.00,1,Thunderstorm,63
2013-9-8,90,85,80,76,74,71,85,74,63,29.95,29.91,29.86,10,10,10,12,6,15,0.00,1,Thunderstorm,52
2013-9-9,91,86,81,75,73,72,79,69,59,29.98,29.94,29.89,10,10,10,13,7,18,0.00,1,,83
2013-9-10,90,82,74,76,73,70,79,69,59,30.01,29.97,29.93,10,9,1,20,8,33,0.24,3,Rain-Thunderstorm,94
2013-9-11,90,83,75,76,74,70,79,69,59,30.01,29.98,29.94,10,10,10,17,7,26,0.42,3,Thunderstorm,124
2013-9-12,88,82,76,77,75,72,97,81,65,30.01,29.96,29.89,10,9,1,10,5,14,0.01,3,Rain-Thunderstorm,82
2013-9-13,90,84,78,75,74,73,85,72,59,29.91,29.87,29.82,10,10,10,7,3,12,0.00,1,,100
2013-9-14,91,85,79,75,74,72,85,72,59,29.96,29.89,29.83,10,10,10,13,5,18,0.00,1,,92
2013-9-15,90,84,78,78,76,74,88,78,68,30.03,29.97,29.90,10,10,6,15,7,22,0.06,3,Rain-Thunderstorm,79
2013-9-16,84,79,74,77,74,70,87,81,74,30.07,29.99,29.93,10,8,0,21,9,31,0.73,4,Fog-Rain-Thunderstorm,71
2013-9-17,85,79,73,76,74,72,94,82,70,30.03,29.96,29.91,10,8,0,16,7,21,0.46,4,Fog-Rain,62
2013-9-18,86,83,80,79,76,73,94,84,74,30.01,29.96,29.91,10,10,7,14,5,23,0.01,3,Rain,53
2013-9-19,89,84,79,76,75,72,91,75,59,30.00,29.97,29.93,10,10,7,17,6,23,0.02,2,Rain-Thunderstorm,38
2013-9-20,88,84,79,75,72,67,91,72,53,30.00,29.95,29.89,10,10,10,16,9,21,0.00,1,Thunderstorm,60
2013-9-21,90,84,78,76,73,69,85,72,59,29.90,29.86,29.78,10,9,0,13,3,18,0.51,3,Fog-Rain,48
2013-9-22,91,86,81,78,74,71,85,75,64,29.89,29.83,29.79,10,10,10,9,5,15,0.00,1,,178
2013-9-23,91,86,81,78,76,74,85,77,68,29.97,29.92,29.87,10,10,10,18,7,30,0.00,1,,167
2013-9-24,92,88,83,79,77,75,88,77,66,29.99,29.94,29.90,10,10,10,9,4,15,0.00,1,,183
2013-9-25,93,86,79,79,76,70,88,77,66,29.92,29.88,29.86,10,9,2,16,5,25,0.04,2,Rain-Thunderstorm,230
2013-9-26,91,87,82,77,75,74,80,68,56,29.92,29.88,29.85,10,10,10,16,7,24,T,2,,272
2013-9-27,89,85,81,79,74,68,88,70,52,29.92,29.88,29.84,10,9,2,13,7,18,0.08,3,Rain,295
2013-9-28,90,83,75,73,72,69,79,69,59,29.96,29.92,29.87,10,10,7,14,4,20,0.06,2,Rain,93
2013-9-29,89,83,77,73,72,70,85,72,59,29.96,29.92,29.87,10,10,10,14,6,17,0.00,2,Thunderstorm,66
2013-9-30,90,83,76,76,73,69,91,75,59,29.98,29.93,29.90,10,9,1,16,7,21,0.39,3,Rain,93